Change the Weather History Date:

Saturday, April 19, 2014

  Actual Average Record
Temperature  
Mean Temperature 50 °F -  
Max Temperature 62 °F 53 °F 64 °F (2009)
Min Temperature 37 °F 43 °F 33 °F (2002)
Degree Days  
Heating Degree Days 16    
Moisture  
Dew Point 38 °F    
Average Humidity 62    
Maximum Humidity 87    
Minimum Humidity 31    
Precipitation  
Precipitation 0.00 in - - ()
Sea Level Pressure  
Sea Level Pressure 30.07 in    
Wind  
Wind Speed 5 mph ()    
Max Wind Speed 14 mph    
Max Gust Speed -    
Averages and records for this station are not official NWS values.
T = Trace of Precipitation, MM = Missing Value Source: Averaged Metar Reports

Daily Weather History Graph

Daily Weather History Graph

Search for Another Location

Airport or City:

Trip Planner

Search our weather history database for the weather conditions in past years. The results will help you decide how hot, cold, wet, or windy it might be!

Date:

Astronomy

Apr. 19, 2014 Rise Set
Actual Time 6:16 AM BST 8:40 PM BST
Civil Twilight 5:36 AM BST 9:20 PM BST
Nautical Twilight 4:45 AM BST 10:12 PM BST
Astronomical Twilight 3:43 AM BST 11:15 PM BST
Moon 12:34 AM BST (4/19) 8:57 AM BST (4/19)
Length of Visible Light 15h 44m
Length of Day
14h 24m
Waning Gibbous, 81% of the Moon is Illuminated
Apr 19
Waning Gibbous
Apr 22
Last Quarter
Apr 29
New
May 7
First Quarter
May 14
Full

Hourly Weather History & Observations

Time (BST) Temp. Windchill Dew Point Humidity Pressure Visibility Wind Dir Wind Speed Gust Speed Precip Events Conditions
5:50 AM 37.4 °F 34.9 °F 33.8 °F 87% 30.09 in - Variable 3.5 mph - N/A   Clear
6:20 AM 37.4 °F - 33.8 °F 87% 30.09 in - Variable 2.3 mph - N/A   Clear
6:50 AM 37.4 °F - 33.8 °F 87% 30.06 in - Variable 2.3 mph - N/A   Clear
7:20 AM 41.0 °F 38.0 °F 35.6 °F 81% 30.06 in - WSW 4.6 mph - N/A   Clear
7:50 AM 42.8 °F 38.6 °F 37.4 °F 81% 30.09 in - SW 6.9 mph - N/A   Clear
8:20 AM 46.4 °F 44.3 °F 41.0 °F 81% 30.09 in - SSW 4.6 mph - N/A   Clear
8:50 AM 48.2 °F - 42.8 °F 82% 30.09 in - WSW 4.6 mph - N/A   Clear
9:20 AM 50.0 °F - 42.8 °F 76% 30.09 in - Variable 2.3 mph - N/A   Clear
9:50 AM 50.0 °F - 41.0 °F 71% 30.09 in - West 4.6 mph - N/A   Clear
10:20 AM 51.8 °F - 41.0 °F 67% 30.06 in - West 4.6 mph - N/A   Clear
10:50 AM 51.8 °F - 41.0 °F 67% 30.06 in - Variable 2.3 mph - N/A   Clear
11:20 AM 55.4 °F - 42.8 °F 63% 30.06 in - Variable 2.3 mph - N/A   Clear
11:50 AM 55.4 °F - 41.0 °F 58% 30.06 in - NNE 6.9 mph - N/A   Clear
12:20 PM 55.4 °F - 41.0 °F 58% 30.06 in - NE 6.9 mph - N/A   Clear
12:50 PM 57.2 °F - 39.2 °F 51% 30.06 in - NNE 6.9 mph - N/A   Clear
1:20 PM 60.8 °F - 32.0 °F 34% 30.06 in - SSE 9.2 mph - N/A   Clear
1:50 PM 60.8 °F - 30.2 °F 31% 30.06 in - SSE 9.2 mph - N/A   Clear
2:20 PM 62.6 °F - 33.8 °F 34% 30.06 in - SSE 9.2 mph - N/A   Clear
2:50 PM 60.8 °F - 33.8 °F 36% 30.04 in - South 8.1 mph - N/A   Clear
3:20 PM 60.8 °F - 33.8 °F 36% 30.04 in - South 10.4 mph - N/A   Clear
3:50 PM 60.8 °F - 39.2 °F 45% 30.04 in - SE 11.5 mph - N/A   Clear
4:20 PM 60.8 °F - 42.8 °F 52% 30.04 in - SE 13.8 mph - N/A   Clear